Location: Ingoldesthorpe
(52.8667°N, 0.5167°E)
Time: 22:23:09
(UTC+00:00)

COSMOS 2406 - Pass Details

Date: 19 May 2025
Orbit: 845 x 859 km, 71.0° (Epoch: 12 June)

Event Time Altitude Azimuth Distance (km) Brightness Sun altitude
Exits shadow 21:59:09 18° 150° (SSE) 1,952 4.4 -13.0°
Maximum altitude 22:02:11 29° 105° (ESE) 1,514 4.2 -13.2°
Drops below altitude 10° 22:07:00 10° 47° (NE) 2,490 5.9 -13.5°
Sets 22:09:45 0° 37° (NE) 3,433 6.8 -13.7°
